AS211 Weather Reports


time (UTC)temp
C
wind
direction
speed
KPH
gust
KPH
rain 1hr
cm
rain 24hr
cm
rain mn
cm
humidity
%
barometer
mb
20260509044004 6 157 8.0 9.7 0.00 0.00 0.00 68 1009.5
20260509043504 6 178 4.8 9.7 0.00 0.00 0.00 67 1009.8
20260509043005 6 190 3.2 14.5 0.00 0.00 0.00 66 1009.8
20260509042504 6 194 4.8 14.5 0.00 0.00 0.00 67 1009.8
20260509042004 6 191 11.3 14.5 0.00 0.00 0.00 67 1009.8
20260509041505 6 194 9.7 14.5 0.00 0.00 0.00 67 1009.5
20260509041004 6 172 4.8 11.3 0.00 0.00 0.00 67 1009.5
20260509040504 6 161 3.2 11.3 0.00 0.00 0.00 67 1010.0
20260509040004 6 168 4.8 11.3 0.00 0.00 0.00 67 1009.9
20260509035503 6 175 3.2 8.0 0.00 0.00 0.00 68 1009.8
20260509035004 6 152 3.2 9.7 0.00 0.00 0.00 68 1010.0
20260509034503 6 133 3.2 9.7 0.00 0.00 0.00 69 1010.2
20260509034004 6 168 4.8 9.7 0.00 0.00 0.00 69 1010.0
20260509033504 6 171 6.4 11.3 0.00 0.00 0.00 68 1009.8
20260509033004 6 144 6.4 12.9 0.00 0.00 0.00 69 1009.8
20260509032504 6 187 8.0 12.9 0.00 0.00 0.00 69 1009.9
20260509032004 6 201 8.0 12.9 0.00 0.00 0.00 69 1010.2
20260509031504 6 173 6.4 12.9 0.00 0.00 0.00 69 1010.2
20260509031004 6 200 3.2 12.9 0.00 0.00 0.00 69 1010.2
20260509030504 6 168 4.8 11.3 0.00 0.00 0.00 70 1010.5
20260509030004 6 176 6.4 11.3 0.00 0.00 0.00 70 1010.5
20260509025504 7 185 6.4 11.3 0.00 0.00 0.00 70 1010.2
20260509025004 7 191 9.7 12.9 0.00 0.00 0.00 70 1010.5
20260509024503 7 181 4.8 12.9 0.00 0.00 0.00 70 1010.5
20260509024004 7 186 4.8 12.9 0.00 0.00 0.00 69 1010.2
20260509023504 7 142 3.2 12.9 0.00 0.00 0.00 70 1010.2
20260509023004 7 191 3.2 9.7 0.00 0.00 0.00 70 1010.5
20260509022504 7 186 8.0 8.0 0.00 0.00 0.00 70 1010.2
20260509021504 7 165 3.2 9.7 0.00 0.00 0.00 70 1010.2
20260509021005 7 157 1.6 9.7 0.00 0.00 0.00 70 1010.2
20260509020504 7 148 4.8 8.0 0.00 0.00 0.00 70 1010.5
20260509020006 7 73 1.6 8.0 0.00 0.00 0.00 69 1010.2
20260509015504 7 187 4.8 8.0 0.00 0.00 0.00 70 1010.2
20260509015004 7 187 8.0 8.0 0.00 0.00 0.00 69 1010.2
20260509014504 7 137 3.2 8.0 0.00 0.00 0.00 69 1010.2
20260509014005 7 145 3.2 8.0 0.00 0.00 0.00 69 1010.2
20260509013504 8 143 4.8 8.0 0.00 0.00 0.00 69 1010.2
20260509013004 8 194 3.2 12.9 0.00 0.00 0.00 67 1010.2
20260509012505 8 186 4.8 14.5 0.00 0.00 0.00 66 1010.2
20260509012004 8 138 3.2 14.5 0.00 0.00 0.00 64 1009.8
20260509011504 8 145 4.8 14.5 0.00 0.00 0.00 63 1010.2
20260509011004 8 141 4.8 9.7 0.00 0.00 0.00 55 1010.2
20260509010005 9 144 3.2 4.8 0.00 0.00 0.00 48 1010.5
20260509005504 9 182 3.2 4.8 0.00 0.00 0.00 47 1010.2
20260509005004 9 148 3.2 4.8 0.00 0.00 0.00 47 1010.2
20260509004504 10 148 1.6 4.8 0.00 0.00 0.00 47 1010.2
20260509003504 10 155 3.2 4.8 0.00 0.00 0.00 45 1010.2
20260509003005 10 154 3.2 4.8 0.00 0.00 0.00 45 1009.8
20260509002504 10 198 3.2 9.7 0.00 0.00 0.00 44 1009.5
20260509002004 10 174 3.2 9.7 0.00 0.00 0.00 44 1009.8
20260509001504 10 201 9.7 11.3 0.00 0.00 0.00 43 1009.8
20260509001005 10 190 4.8 11.3 0.00 0.00 0.00 43 1009.8
20260509000005 11 180 3.2 16.1 0.00 0.00 0.00 42 1009.5
20260508235504 11 158 8.0 16.1 0.00 0.00 0.00 42 1009.8
20260508235005 11 178 8.0 16.1 0.00 0.00 0.00 41 1009.8
20260508234505 11 186 4.8 9.7 0.00 0.00 0.00 41 1009.8
20260508234004 11 197 4.8 9.7 0.00 0.00 0.00 42 1009.5
20260508233505 11 163 4.8 9.7 0.00 0.00 0.00 42 1009.5
20260508233004 11 187 4.8 9.7 0.00 0.00 0.00 42 1009.8
20260508232505 11 185 3.2 9.7 0.00 0.00 0.00 42 1010.2
20260508232005 11 188 3.2 9.7 0.00 0.00 0.00 42 1009.8
20260508231504 11 182 3.2 9.7 0.00 0.00 0.00 43 1010.2
20260508230504 11 184 3.2 11.3 0.00 0.00 0.00 41 1010.2
20260508225004 12 160 1.6 8.0 0.00 0.00 0.00 41 1009.8
20260508224505 12 224 1.6 8.0 0.00 0.00 0.00 40 1010.1
20260508224004 12 341 1.6 8.0 0.00 0.00 0.00 40 1010.2
20260508223504 12 323 4.8 8.0 0.00 0.00 0.00 40 1010.2
20260508223005 12 278 4.8 9.7 0.00 0.00 0.00 40 1010.0
20260508222004 12 301 3.2 9.7 0.00 0.00 0.00 40 1010.1
20260508221504 13 283 3.2 9.7 0.00 0.00 0.00 40 1009.8
20260508220505 12 231 0.0 8.0 0.00 0.00 0.00 40 1009.8
20260508214003 12 182 4.8 16.1 0.00 0.00 0.00 42 1010.5
20260508213503 12 270 1.6 16.1 0.00 0.00 0.00 41 1010.5
20260508213004 12 313 8.0 14.5 0.00 0.00 0.00 41 1010.5
20260508212003 12 27 0.0 12.9 0.00 0.00 0.00 41 1010.2
20260508211502 13 321 11.3 12.9 0.00 0.00 0.00 41 1010.5
20260508210503 12 307 1.6 11.3 0.00 0.00 0.00 40 1010.5
20260508205504 11 310 8.0 20.9 0.00 0.00 0.00 42 1010.5
20260508205004 12 208 4.8 20.9 0.00 0.00 0.00 42 1010.8
20260508204503 11 322 9.7 20.9 0.00 0.00 0.00 43 1010.2
20260508204003 11 293 16.1 20.9 0.00 0.00 0.00 43 1010.4
20260508203504 11 290 9.7 20.9 0.00 0.00 0.00 43 1010.5
20260508203003 11 280 3.2 16.1 0.00 0.00 0.00 43 1010.9
20260508202503 11 283 4.8 14.5 0.00 0.00 0.00 43 1011.0
20260508201503 11 279 1.6 20.9 0.00 0.00 0.00 44 1011.0
20260508201003 11 290 4.8 20.9 0.00 0.00 0.00 44 1011.2
20260508200504 11 308 9.7 20.9 0.00 0.00 0.00 45 1011.2
20260508200003 11 290 8.0 20.9 0.00 0.00 0.00 45 1011.1
20260508195503 11 285 9.7 19.3 0.00 0.00 0.00 46 1010.8
20260508195003 10 337 14.5 19.3 0.00 0.00 0.00 45 1010.8
20260508194503 11 352 12.9 25.7 0.00 0.00 0.00 44 1011.2
20260508194003 10 290 9.7 25.7 0.00 0.00 0.00 46 1010.8
20260508193502 10 296 11.3 25.7 0.00 0.00 0.00 45 1011.2
20260508193004 10 284 11.3 20.9 0.00 0.00 0.00 44 1010.8
20260508192503 10 301 9.7 20.9 0.00 0.00 0.00 45 1011.2
20260508192003 11 319 4.8 20.9 0.00 0.00 0.00 43 1010.5
20260508190503 11 290 8.0 22.5 0.00 0.00 0.00 44 1011.5
20260508190004 11 214 4.8 22.5 0.00 0.00 0.00 44 1011.5
20260508185503 11 326 3.2 22.5 0.00 0.00 0.00 45 1011.2
20260508185004 11 284 4.8 11.3 0.00 0.00 0.00 44 1011.5
20260508184003 10 52 1.6 11.3 0.00 0.00 0.00 47 1011.9
20260508183504 11 259 1.6 16.1 0.00 0.00 0.00 47 1011.2
20260508183003 10 279 3.2 16.1 0.00 0.00 0.00 45 1011.5
20260508182503 11 167 9.7 24.1 0.00 0.00 0.00 48 1011.9
20260508182004 11 305 9.7 24.1 0.00 0.00 0.00 45 1011.5
20260508181003 10 325 4.8 24.1 0.00 0.00 0.00 46 1011.9
20260508180503 10 353 3.2 16.1 0.00 0.00 0.00 46 1011.9
20260508180003 10 270 8.0 16.1 0.00 0.00 0.00 45 1011.2
20260508175503 10 273 4.8 16.1 0.00 0.00 0.00 45 1011.9
20260508175004 11 205 4.8 11.3 0.00 0.00 0.00 45 1011.5
20260508174503 11 196 4.8 11.3 0.00 0.00 0.00 43 1011.5
20260508174003 10 264 4.8 16.1 0.00 0.00 0.00 46 1011.9
20260508173503 10 258 3.2 16.1 0.00 0.00 0.00 47 1011.9
20260508173004 9 312 12.9 16.1 0.00 0.00 0.00 47 1011.9
20260508172503 10 314 12.9 16.1 0.00 0.00 0.00 46 1011.9
20260508171503 9 319 9.7 20.9 0.00 0.00 0.00 47 1011.9
20260508170504 9 306 8.0 22.5 0.00 0.00 0.00 46 1011.9
20260508170003 9 346 20.9 22.5 0.00 0.00 0.00 48 1011.9
20260508165503 9 333 4.8 12.9 0.00 0.00 0.00 49 1011.9
20260508165004 9 322 8.0 12.9 0.00 0.00 0.00 48 1012.2
20260508164004 9 294 4.8 16.1 0.00 0.00 0.00 48 1011.9
20260508163003 9 126 0.0 11.3 0.00 0.00 0.00 47 1012.2
20260508162503 10 173 3.2 11.3 0.00 0.00 0.00 46 1012.2
20260508162004 10 202 1.6 11.3 0.00 0.00 0.00 47 1012.2
20260508161503 10 283 4.8 11.3 0.00 0.00 0.00 49 1012.5
20260508161003 9 306 3.2 11.3 0.00 0.00 0.00 50 1012.2
20260508160503 9 339 4.8 11.3 0.00 0.00 0.00 51 1012.5
20260508160004 8 201 0.0 11.3 0.00 0.00 0.00 51 1012.9
20260508155004 10 288 4.8 9.7 0.00 0.00 0.00 51 1012.2
20260508154503 8 255 0.0 9.7 0.00 0.00 0.00 53 1012.5
20260508152503 9 305 8.0 11.3 0.00 0.00 0.00 52 1012.9
20260508150503 7 295 3.2 19.3 0.00 0.00 0.00 55 1013.1
20260508150003 8 285 9.7 19.3 0.00 0.00 0.00 54 1013.0
20260508145503 8 298 4.8 19.3 0.00 0.00 0.00 54 1012.9
20260508145004 7 305 4.8 12.9 0.00 0.00 0.00 55 1012.9
20260508144503 7 317 3.2 12.9 0.00 0.00 0.00 55 1012.9
20260508144003 7 319 8.0 12.9 0.00 0.00 0.00 55 1012.9
20260508143503 7 311 4.8 11.3 0.00 0.00 0.00 55 1012.7
20260508142005 7 325 3.2 12.9 0.00 0.00 0.00 55 1013.0
20260508141503 7 120 6.4 14.5 0.00 0.00 0.00 58 1013.5
20260508141004 6 328 9.7 14.5 0.00 0.00 0.00 56 1013.5
20260508140504 7 306 9.7 14.5 0.00 0.00 0.00 55 1012.9
20260508140005 7 177 8.0 14.5 0.00 0.00 0.00 56 1012.9
20260508135504 7 294 1.6 8.0 0.00 0.00 0.00 59 1012.9
20260508135003 6 200 1.6 8.0 0.00 0.00 0.00 62 1012.9
20260508134503 7 239 3.2 9.7 0.00 0.00 0.00 59 1012.9
20260508134003 7 316 3.2 9.7 0.00 0.00 0.00 60 1012.9
20260508133503 6 323 1.6 9.7 0.00 0.00 0.00 64 1013.2
20260508133003 7 153 6.4 9.7 0.00 0.00 0.00 60 1012.9
20260508131503 6 129 1.6 11.3 0.00 0.00 0.00 62 1013.2
20260508131003 6 160 4.8 11.3 0.00 0.00 0.00 62 1012.9
20260508130504 6 148 4.8 11.3 0.00 0.00 0.00 61 1012.9
20260508130004 6 94 3.2 11.3 0.00 0.00 0.00 62 1012.9
20260508125503 5 179 8.0 11.3 0.00 0.00 0.00 63 1012.9
20260508125006 5 161 4.8 11.3 0.00 0.00 0.00 62 1013.2
20260508124504 5 308 1.6 11.3 0.00 0.00 0.00 62 1013.2
20260508124003 5 153 3.2 11.3 0.00 0.00 0.00 63 1012.9
20260508123506 5 252 0.0 9.7 0.00 0.00 0.00 62 1012.9
20260508123004 5 172 4.8 9.7 0.00 0.00 0.00 64 1012.9
20260508122503 5 139 1.6 9.7 0.00 0.00 0.00 63 1013.2
20260508122003 5 175 1.6 4.8 0.00 0.00 0.00 63 1012.5
20260508121504 4 136 4.8 4.8 0.00 0.00 0.00 66 1012.9
20260508121004 4 168 4.8 8.0 0.00 0.00 0.00 66 1012.9
20260508120005 3 166 4.8 8.0 0.00 0.00 0.00 69 1012.9
20260508115505 3 175 4.8 8.0 0.00 0.00 0.00 72 1012.9
20260508115004 3 132 3.2 8.0 0.00 0.00 0.00 71 1012.9
20260508114503 3 169 3.2 4.8 0.00 0.00 0.00 69 1013.2
20260508114005 3 129 4.8 4.8 0.00 0.00 0.00 68 1013.2
20260508113503 3 168 3.2 8.0 0.00 0.00 0.00 69 1012.5
20260508113004 3 122 3.2 8.0 0.00 0.00 0.00 69 1012.9
20260508112503 3 130 8.0 8.0 0.00 0.00 0.00 70 1012.9
20260508112004 2 127 4.8 4.8 0.00 0.00 0.00 72 1013.2
20260508111503 2 143 1.6 4.8 0.00 0.00 0.00 73 1012.9
20260508111004 2 145 3.2 4.8 0.00 0.00 0.00 73 1012.9
20260508110505 3 122 3.2 4.8 0.00 0.00 0.00 73 1012.5
20260508110004 3 97 3.2 4.8 0.00 0.00 0.00 74 1012.5
20260508105503 3 83 3.2 4.8 0.00 0.00 0.00 75 1012.5
20260508105004 2 103 3.2 4.8 0.00 0.00 0.00 75 1012.9
20260508104504 3 111 1.6 3.2 0.00 0.00 0.00 75 1012.5
20260508104005 2 102 0.0 3.2 0.00 0.00 0.00 77 1012.9
20260508103004 2 118 1.6 3.2 0.00 0.00 0.00 78 1012.5
20260508102504 1 89 1.6 3.2 0.00 0.00 0.00 80 1012.9
20260508102005 1 84 3.2 3.2 0.00 0.00 0.00 82 1012.5
20260508101504 0 76 3.2 3.2 0.00 0.00 0.00 82 1012.9
20260508101004 0 99 1.6 3.2 0.00 0.00 0.00 82 1012.9
20260508100503 0 90 3.2 4.8 0.00 0.00 0.00 81 1012.9
20260508095505 1 128 3.2 4.8 0.00 0.00 0.00 80 1012.2
20260508095003 1 113 3.2 3.2 0.00 0.00 0.00 78 1012.5
20260508094504 1 99 3.2 3.2 0.00 0.00 0.00 78 1012.5
20260508094004 2 83 1.6 3.2 0.00 0.00 0.00 76 1012.5
20260508093503 2 88 3.2 3.2 0.00 0.00 0.00 76 1012.5
20260508093004 2 74 3.2 3.2 0.00 0.00 0.00 74 1012.9
20260508092503 3 79 3.2 3.2 0.00 0.00 0.00 72 1012.5
20260508092004 3 76 0.0 3.2 0.00 0.00 0.00 73 1012.2
20260508091504 3 82 3.2 3.2 0.00 0.00 0.00 74 1012.2
20260508091004 2 86 1.6 4.8 0.00 0.00 0.00 74 1012.4
20260508090503 2 90 1.6 4.8 0.00 0.00 0.00 73 1012.8
20260508090004 2 111 3.2 4.8 0.00 0.00 0.00 74 1012.9
20260508085004 1 145 3.2 4.8 0.00 0.00 0.00 76 1012.5
20260508084504 1 137 3.2 3.2 0.00 0.00 0.00 77 1012.4
20260508084003 1 125 3.2 4.8 0.00 0.00 0.00 78 1012.2
20260508082504 1 171 3.2 4.8 0.00 0.00 0.00 77 1012.9
20260508081504 1 144 3.2 4.8 0.00 0.00 0.00 76 1012.5
20260508081003 1 131 3.2 4.8 0.00 0.00 0.00 77 1012.2
20260508080004 1 103 3.2 3.2 0.00 0.00 0.00 77 1012.2
20260508075503 1 101 1.6 3.2 0.00 0.00 0.00 77 1012.2
20260508075004 1 112 3.2 3.2 0.00 0.00 0.00 77 1012.2
20260508074504 1 98 3.2 3.2 0.00 0.00 0.00 77 1012.5
20260508074004 1 42 1.6 3.2 0.00 0.00 0.00 76 1012.5
20260508073504 1 98 3.2 4.8 0.00 0.00 0.00 76 1012.2
20260508073004 1 144 3.2 4.8 0.00 0.00 0.00 76 1012.2
20260508072504 1 106 3.2 4.8 0.00 0.00 0.00 76 1012.2
20260508072004 1 95 3.2 3.2 0.00 0.00 0.00 75 1012.2
20260508071504 2 95 3.2 4.8 0.00 0.00 0.00 75 1012.2
20260508071003 2 122 3.2 4.8 0.00 0.00 0.00 74 1012.5
20260508070002 2 121 3.2 3.2 0.00 0.00 0.00 74 1012.5
20260508065503 2 116 0.0 3.2 0.00 0.00 0.00 73 1012.5
20260508065002 2 146 3.2 4.8 0.00 0.00 0.00 74 1012.5
20260508064503 2 104 0.0 4.8 0.00 0.00 0.00 74 1012.5
20260508064003 2 111 1.6 4.8 0.00 0.00 0.00 74 1012.9
20260508062502 2 154 3.2 4.8 0.00 0.00 0.00 74 1012.5
20260508062003 1 159 4.8 4.8 0.00 0.00 0.00 76 1012.9
20260508060503 1 144 1.6 4.8 0.00 0.00 0.00 76 1012.9
20260508060003 1 120 1.6 4.8 0.00 0.00 0.00 77 1012.9
20260508055503 1 141 3.2 4.8 0.00 0.00 0.00 78 1012.5
20260508055002 1 120 3.2 4.8 0.00 0.00 0.00 79 1013.2
20260508054503 1 140 3.2 4.8 0.00 0.00 0.00 78 1012.9
20260508054003 1 98 1.6 4.8 0.00 0.00 0.00 78 1013.2
20260508053504 1 137 3.2 4.8 0.00 0.00 0.00 78 1013.2
20260508053002 1 120 1.6 4.8 0.00 0.00 0.00 79 1013.2
20260508052502 1 123 3.2 4.8 0.00 0.00 0.00 79 1013.5
20260508052003 1 130 1.6 4.8 0.00 0.00 0.00 79 1013.5
20260508051003 1 129 0.0 4.8 0.00 0.00 0.00 79 1012.9
20260508050503 1 128 1.6 4.8 0.00 0.00 0.00 79 1013.2
20260508050002 1 123 1.6 4.8 0.00 0.00 0.00 80 1013.2
20260508045503 1 109 1.6 4.8 0.00 0.00 0.00 79 1013.2